NIMBUS 2 DEB

Satellite information

Favourite Embed

Satellite Type and Status

DEBRISIN ORBIT

Key statistics

Satellite NIMBUS 2 DEB at a glance.

Uptime

21663

Days in orbit

Revolutions

≈ 13.7

Per day

Orbit

SSO

Sun Synchronous Orbit

Inclination

100.2

Latest

Satellite identification and parameters

Extended collection of information and parameters for NIMBUS 2 DEB.

Object identification

Identified? True

Debris? True

Object name: NIMBUS 2 DEB

International designator: 1966-040S

Object number (NORAD): 28204

Object ID (CCSDS): 28204

Country: UNITED STATES OF AMERICA (US)

Current information (Y/N): Y

RCS size: SMALL

Orbital parameters

Period: 104.767 minutes

Inclination: 100.1815 deg

SMA: 7361.665 km

Apoapsis: 1018.571 km

Periapsis: 948.488 km

RAAN: 149.8295 deg

Eccentricy: 0.00476003

Argument of periapsis: 15.9324 deg

Mean anomaly: 135.3207 deg

Mean motion: 13.74480941 rev/day

Mean motion (dot): 0.00006061 rev/day2

B* drag term: 0.0064002714 1/REarth

Two-line elements (TLE)

Creation date: Sept. 4, 2025, 10:13 a.m.

Reference frame: TEME

Reference center: EARTH

Epoch: Sept. 4, 2025, 5:09 a.m. UTC

TLE line 0: 0 NIMBUS 2 DEB

TLE line 1: 1 28204U 66040S 25247.21520495 .00006061 00000-0 64003-2 0 9998

TLE line 2: 2 28204 100.1815 149.8295 0047600 15.9324 135.3207 13.74480941591336

Live tracking on map

Real-time ground track for satellite NIMBUS 2 DEB.

In-orbit conjunctions

A list of the most updated potential collisions computed for object NIMBUS 2 DEB.

Target Orbit TCA Probability of collision Miss distance Type
COSMOS 489 LEO 2025-06-10 12:14:54 0.0001642346 418.0 (m) PAYLOAD
COSMOS 489 LEO 2025-06-10 10:30:07 0.0002287373 399.0 (m) PAYLOAD
SL-8 R/B LEO 2025-02-24 03:10:19 0.0001105575 106.0 (m) ROCKET BODY
COSMOS 400 LEO 2024-06-25 23:04:48 0.0001063009 967.0 (m) PAYLOAD

Associated space launch

Nimbus 2, the second in a series of second-generation meteorological research-and-development satellites, added an additional medium-resolution infrared radiometer (MRIR) compared to Nimbus 1.

NIMBUS 2 DEB was lifted into orbit during the mission ‘Thor SLV-2A Agena B | Nimbus 2’, on board a Thor SLV-2A Agena B space rocket.

The launch took place on May 15, 1966, 7:55 a.m. from Space Launch Complex 2E.

For more information about the launch, click the button.

Launch to space Thor SLV-2A Agena B | Nimbus 2
Thor SLV-2A Agena B | Nimbus 2

Agency: N/A

Status: Launch Successful

Launch date: May 15, 1966, 7:55 a.m. UTC

Rocket: Thor SLV-2A Agena B

Launch pad: Space Launch Complex 2E

Location: Vandenberg SFB, CA, USA

...

Latest news about this satellite

There are no fresh news available about this satellite. Check back as we update our databases every day.


Newsletter sign-up

Weekly statistics, charts and insights to help you stay on top of the space industry.